This is the latest recevied weather packets stored in our database for station/object WA4OPQ-3. If no packets are shown the sender has not sent any weather packets the latest 10 day(s).
| Time | Temp. | Humidity | Pressure | Rain* | Wind** | Luminosity | Snow |
|---|---|---|---|---|---|---|---|
| 1777439821 | 16.67° C | 99% | 1014 hPa | 15.75 mm | - | 0 W/m² | - |
| 1777439216 | 16.67° C | 99% | 1014.1 hPa | 16 mm | - | 0 W/m² | - |
| 1777438611 | 16.67° C | 99% | 1014.5 hPa | 19.3 mm | - | 0 W/m² | - |
| 1777438005 | 16.67° C | 99% | 1014.1 hPa | 17.53 mm | - | 0 W/m² | - |
| 1777437400 | 16.67° C | 99% | 1014.1 hPa | 16.51 mm | - | 0 W/m² | - |
| 1777436796 | 16.67° C | 99% | 1014.2 hPa | 14.22 mm | - | 0 W/m² | - |
| 1777436192 | 16.67° C | 99% | 1013.9 hPa | 10.41 mm | - | 0 W/m² | - |
| 1777435586 | 16.67° C | 99% | 1014.1 hPa | 7.11 mm | - | 0 W/m² | - |
| 1777434981 | 16.67° C | 99% | 1014.2 hPa | 2.54 mm | - | 0 W/m² | - |
| 1777434376 | 16.67° C | 99% | 1013.8 hPa | 1.52 mm | - | 0 W/m² | - |
| 1777433771 | 17.22° C | 99% | 1013.6 hPa | 0.51 mm | - | 0 W/m² | - |
| 1777433167 | 16.67° C | 99% | 1014.1 hPa | 0 mm | - | 0 W/m² | - |
| 1777432561 | 16.67° C | 99% | 1013.4 hPa | 0 mm | - | 0 W/m² | - |
| 1777431957 | 16.67° C | 99% | 1013.1 hPa | 0 mm | - | 0 W/m² | - |
| 1777431352 | 17.22° C | 99% | 1012.4 hPa | 0 mm | - | 0 W/m² | - |
| 1777430745 | 17.22° C | 99% | 1013 hPa | 0 mm | - | 0 W/m² | - |
| 1777430141 | 17.22° C | 99% | 1013.6 hPa | 0 mm | - | 0 W/m² | - |
| 1777429537 | 17.22° C | 99% | 1013.3 hPa | 0 mm | - | 0 W/m² | - |
| 1777428932 | 17.22° C | 99% | 1013.3 hPa | 0 mm | - | 0 W/m² | - |
| 1777428325 | 17.22° C | 99% | 1013.1 hPa | 0 mm | - | 0 W/m² | - |
| 1777427720 | 16.67° C | 99% | 1013.3 hPa | 0 mm | - | 0 W/m² | - |
| 1777427116 | 17.22° C | 99% | 1013.4 hPa | 0 mm | - | 0 W/m² | - |
| 1777426512 | 17.22° C | 99% | 1013.1 hPa | 0 mm | - | 0 W/m² | - |
| 1777425907 | 17.22° C | 99% | 1013.1 hPa | 1.27 mm | - | 0 W/m² | - |
| 1777425301 | 16.67° C | 99% | 1012.9 hPa | 2.79 mm | - | 0 W/m² | - |
* Rain latest hour (hover to see other rain measurements)
** Current wind speed in m/s (hover to see current wind gust speed)